Lid_Strength_Index
1 1 1 1 1 1 1 1 -0 -0 -1 1 0 1 1 1 1 0 0 0 0 1
1 1 1 0 0 1 0 0 -0 -0 0 1 1 1 -0 1 -0 0 0 0 0 0
1 1 0 0 1 0 -0 -1 0 0 1 2 1 1 0 0 0 0 1 0 0 0
1 1 0 1 0 0 -0 0 1 1 2 1 1 0 0 1 1 1 0 0 1 1
1 1 1 1 0 -0 0 1 2 2 2 2 1 1 1 2 1 1 1 1 1 1
1 1 1 1 0 1 1 2 3 3 2 2 1 1 1 1 1 1 1 1 1 2
1 2 1 1 1 2 2 3 3 2 2 2 1 1 1 1 1 1 0 0 1 1
2 2 2 2 2 3 3 3 2 2 2 2 3 5 4 1 1 1 1 1 2 2
3 3 3 3 4 4 4 2 3 2 3 3 5 10 9 5 1 1 2 2 2 3
4 5 4 4 4 3 3 3 3 3 3 4 5 11 10 8 1 2 2 2 3 4
5 5 5 5 4 3 3 3 4 4 4 5 7 11 11 9 2 3 3 4 4 4
5 5 5 5 4 4 5 4 4 3 4 5 7 11 10 8 2 3 4 4 6 7
5 5 5 4 5 5 4 3 4 5 5 6 6 11 11 9 3 4 4 4 8 11
5 4 4 4 4 4 4 5 5 5 5 5 7 8 11 11 5 6 5 6 7 8